www.pogodaiklimat.ru

Погода и климат >> Архив погоды >> Мексика >> Monclova


ПОГОДА в Monclova

  • Прогноз погоды в Monclova
  • Монитор погоды в Monclova
  • Климат города

АРХИВ ПОГОДЫ в Monclova

Время (UTC), дата Ветер
(напр.,м/с)
 
Видим.   Явления Облачность Т
(С)
Тd
(С)
f
(%)
Тe
(С)
Тes
(С)
Комфортность P
(гПа)
Po
(гПа)
Тmin
(С)
Tmax
(С)
R
(мм)
R24
(мм)
S
(см)
00 15.02 СВ 2 12 км ясно +26.4 +12.5 42 +28 +28 жарко 1017.9 948.2 +10.2 +29.5
03 15.02 СВ 2 4000 м ясно +20.4 +13.6 65 +23 +23 комфорт 1016.9 947.9
06 15.02 ЮВ 2 4000 м ясно +17.4 +13.0 75 +18 +18 1017.5 948.5 +10.2 +29.5
09 15.02 З 2 4000 м ясно +15.4 +13.2 87 +15 +15 1016.2 947.7
12 15.02 ЮЗ 2 4000 м ясно +14.2 +12.3 88 +14 +14 1019.0 948.1 +13.8 +29.5
15 15.02 Ю 1 12 км ясно +15.8 +11.6 76 +17 +20 1020.6 949.5
18 15.02 СВ 1 12 км ясно +24.0 +13.6 52 +26 +41 жарко 1020.3 949.6 +12.8 +24.5
21 15.02 С 1 12 км ясно +31.6 +14.4 35 +33 +44 жарко 1014.4 944.9
00 16.02 СВ 1 12 км ясно +32.0 +13.8 33 +33 +33 жарко 1012.0 943.6 +12.8 +33.3
03 16.02 С 1 4000 м ясно +24.8 +18.8 69 +30 +30 душно 1012.5 944.8
06 16.02 С 1 4000 м ясно +21.0 +16.2 74 +26 +26 душно 1015.3 947.4 +12.8 +33.3
09 16.02 Ю 1 4000 м ясно +18.5 +13.8 74 +20 +20 1015.5 947.5
12 16.02 Ю 2 4000 м ясно +16.0 +11.4 74 +16 +16 1016.0 947.8 +15.8 +33.3
15 16.02 В 1 12 км 9/0
[Ci]
+18.2 +15.1 82 +20 +23 1018.8 948.7
18 16.02 В 3 12 км 3/3 600 м
[Cu med, cong]
+21.0 +17.2 79 +25 +33 комфорт 1019.9 949.6 +15.8 +21.7
21 16.02 СВ 3 12 км 6/0
[Ci]
+28.2 +16.9 50 +32 +39 душно 1015.6 946.1
00 17.02 СВ 3 12 км 5/0
[Ci]
+25.0 +17.0 61 +29 +29 душно 1014.5 945.6 +15.8 +28.9
03 17.02 З 2 4000 м 5/0 2000 м
[Ac und]
+21.6 +15.9 70 +25 +25 комфорт 1014.1 946.7
06 17.02 С 1 4000 м 4/0 2000 м
[Ac und]
+20.0 +15.5 75 +23 +23 комфорт 1013.5 946.0 +15.8 +28.9
09 17.02 В 1 4000 м 9/9 300 м
[Frnb]
+18.8 +15.2 80 +21 +21 комфорт 1015.5 945.8
12 17.02 Ю 2 4000 м 8/4 300 м
[Frnb Ac und]
+18.0 +14.9 82 +19 +19 1015.7 945.8 +17.2 +28.9
15 17.02 С 1 10 км 8/0 2000 м
[Ac und]
+19.0 +16.0 83 +21 +23 комфорт 1017.7 947.6
18 17.02 СВ 3 12 км 3/0 2000 м
[Ac und]
+23.4 +16.3 64 +28 +37 душно 1018.3 948.4 +7.2 +24.0
21 17.02 СВ 3 12 км 3/0 2000 м
[Ac und]
+25.6 +15.9 55 +29 +35 душно 1015.8 946.5
00 18.02 СВ 3 12 км ясно +24.0 +15.7 60 +27 +27 жарко 1015.9 946.9 +17.2 +26.5
03 18.02 ЮВ 2 4000 м ясно +21.2 +16.1 73 +25 +25 комфорт 1017.1 948.2
06 18.02 З 2 4000 м ясно +19.2 +15.9 81 +21 +21 комфорт 1017.1 948.1 +17.2 +26.5
09 18.02 СВ 2 4000 м 9/0 2000 м
[Ac lent]
+19.0 +16.0 83 +21 +21 комфорт 1014.8 946.4
12 18.02 ЮВ 2 4000 м 10/10 300 м
[Frnb]
+18.8 +15.8 83 +20 +20 1016.6 946.7 +18.4 +26.5
15 18.02 В 1 12 км 10/0 2000 м
[As trans]
+18.4 +16.3 88 +20 +22 1017.4 947.3
18 18.02 СВ 1 12 км 8/0 2000 м
[As trans]
+22.6 +16.4 68 +27 +35 душно 1016.7 946.9 +17.8 +23.0
21 18.02 В 1 12 км ясно +27.6 +16.9 52 +31 +42 душно 1011.3 942.5
00 19.02 С 1 12 км 5/0
[Ci]
+26.2 +15.6 52 +29 +29 жарко 1009.5 941.1 +17.8 +29.3
03 19.02 З 1 4000 м ясно +23.0 +16.7 68 +28 +28 душно 1009.7 941.6
06 19.02 В 1 4000 м ясно +21.0 +16.6 76 +26 +26 душно 1009.6 941.4 +17.8 +29.3
09 19.02 СВ 1 4000 м 8/0 2000 м
[Ac und]
+21.5 +16.6 74 +25 +25 комфорт 1010.5 941.5
12 19.02 Ю 2 4000 м ясно +21.0 +15.0 69 +25 +25 комфорт 1010.1 941.1 +20.6 +29.3
15 19.02 Ю 2 12 км 8/0 2000 м
[Ac As Ci]
+19.9 +15.7 77 +23 +25 комфорт 1010.4 941.3
18 19.02 СЗ 1 12 км ясно +28.4 +15.1 44 +31 +47 душно 1010.2 941.4 +18.0 +29.1
21 19.02 С 2 12 км 8/1 600 м
[Cu med, cong Ci]
+32.9 +10.3 25 +32 +39 жарко 1005.1 937.3
00 20.02 СВ 2 12 км 9/4 600 м
[Cu med, cong As trans]
+31.5 +11.3 29 +32 +32 жарко 1003.9 936.7 +18.0 +33.6
03 20.02 Ю 3 4000 м ясно +28.0 +12.7 39 +29 +29 жарко 1003.0 936.5
06 20.02 В 2 4000 м 4/0 2000 м
[Ac lent]
+26.6 +14.3 47 +29 +29 жарко 1004.3 937.7 +18.0 +33.6
09 20.02 ЮЗ 1 4000 м 4/0 2000 м
[Ac lent]
+24.0 +14.3 55 +27 +27 жарко 1012.0 943.7
12 20.02 ЮВ 3 4000 м ясно +21.8 +11.7 53 +24 +24 комфорт 1007.5 939.3 +20.0 +33.6
15 20.02 Ю 2 12 км 6/0 2000 м
[Ac As]
+20.4 +12.5 60 +23 +25 комфорт 1010.6 941.9
18 20.02 СЗ 1 12 км 6/0 2000 м
[Ac As]
+27.0 +9.7 34 +27 +37 жарко 1010.3 941.8 +20.0 +27.6
21 20.02 СВ 2 12 км 6/0 2000 м
[Ac As]
+32.0 +9.6 25 +31 +37 жарко 1007.2 939.2
00 21.02 СВ 1 12 км 9/0 2000 м
[Ac As]
+29.0 +9.1 29 +29 +29 жарко 1007.6 940.0 +20.0 +32.5
03 21.02 ЮВ 3 4000 м слабый дождь 9/0 2000 м
[Ac As]
+22.2 +14.6 62 +26 +26 душно 1009.3 941.8 2
06 21.02 ЮЗ 2 4000 м слабый дождь 3/0 2000 м
[Ac As]
+23.4 +12.1 49 +26 +26 жарко 1009.1 941.5 2
09 21.02 ЮЗ 2 4000 м ясно +22.2 +15.6 66 +26 +26 душно 1010.5 942.4
12 21.02 ЮЗ 3 4000 м ясно +20.0 +13.5 66 +22 +22 комфорт 1011.9 943.0 +19.4 +32.5
15 21.02 ЮВ 2 12 км ясно +19.4 +12.4 64 +21 +25 комфорт 1016.3 946.8
18 21.02 С 1 12 км ясно +28.4 +10.8 33 +29 +45 жарко 1016.5 947.3 +17.8 +29.0
21 21.02 В 1 12 км ясно +32.2 +7.4 21 +31 +42 жарко 1012.4 943.9

 

Местоположение метеостанции Monclova (Мексика): широта 26.88 долгота -101.40 высота над уровнем моря 615 м.

В архиве по умолчанию представлена погода в Monclova за последнюю неделю. Архивные данные за месяц целиком и за предыдущие месяцы, начиная с января 2011 года, Вы можете получить, выбрав интересующий диапазон дат из раскрывающегося списка и нажав кнопку "Ввод!".

Внимание! Время в таблицах - всемирное. Для получения местного времени необходимо прибавить поправку, которая в Monclova равна -6 ч.

Смотрите также архив погоды в соседних городах и на ближайших метеорологических станциях:

Погода в Monterrey (Мексика) (168 км)
Погода в Saltillo (Мексика) (173 км)
Погода в Piedras Negras (Мексика) (221 км)
Погода в Torreon (Мексика) (250 км)
Погода в Hidalgo del Parral (Мексика) (417 км)
Погода в Ciudad Victoria (Мексика) (418 км)
Погода в Sombrerete (Мексика) (424 км)
Погода в Durango (Мексика) (450 км)
Погода в Tepehuanes (Мексика) (464 км)
Погода в Zacatecas (Мексика) (469 км)

Пояснения к столбцам:

Ветер - указаны скорость ветра в м/с - средняя за 10 мин, порывы в срок и между сроками (в фигурных скобках) и направление, откуда дует ветер: С - северный, СВ - северо-восточный, В - восточный, ЮВ - юго-восточный, Ю - южный, ЮЗ - юго-западный, З - западный, СЗ - северо-западный.
Видимость - горизонтальная дальность видимости в метрах или километрах. При видимости от 1 до 10 км при отсутствии осадков обычно наблюдается дымка, при ухудшении видимости до 1 км и менее - туман. В сухую погоду видимость может ухудшаться дымом, пылью или мглою.
Явления - указаны атмосферные явления, наблюдавшиеся в срок или в последний час перед сроком; фигурными скобками обозначены явления, наблюдавшиеся между сроками (за 1-3 часа до срока); квадратными скобками обозначены град или гололедные отложения с указанием их диаметра в мм.
Облачность - указаны через наклонную черту общая и нижняя облачность в баллах и высота нижней границы облаков в метрах; квадратными скобками обозначены формы облаков: Ci - перистые, Cs - перисто-слоистые, Cc - перисто-кучевые, Ac - высококучевые, As - высокослоистые, Sc - слоисто-кучевые, Ns - слоисто-дождевые, Cu - кучевые, Cb - кучево-дождевые. Подробнее классификацию облаков см. в Атласе облаков (PDF).
T - Температура воздуха - температура, измеренная на высоте 2 м над землей.
Td - Температура точки росы - температура, при понижении до которой содержащийся в воздухе водяной пар достигнет насыщения.
f - Относительная влажность воздуха - влажноcть воздуха, измеренная на высоте 2 м над землей.
Te - Эффективная температура - температура, которую ощущает одетый по сезону человек в тени. Характеристика душности погоды. При расчете учитывается влияние влажности воздуха и скорости ветра на теплоощущения человека.
Tes - Эффективная температура на солнце - температура, которую ощущает человек, с поправкой на солнечный нагрев. Характеристика знойности погоды. Зависит от высоты солнца над горизонтом, облачности и скорости ветра. Ночью, в пасмурную погоду, а также при ветре 12 м/с и более поправка равна нулю.
P - Атмосферное давление - приведенное к уровню моря атмосферное давление.
Po - Атмосферное давление - измеренное на уровне метеостанции атмосферное давление.
Tmin - Минимальная температура - минимум температуры воздуха на высоте 2 м над землей.
Tmax - Максимальная температура - максимум температуры воздуха на высоте 2 м над землей.
R - Количество осадков - Количество выпавших осадков за период времени, мм. При наведении курсора мыши на число - период времени, за который выпало указанное количество осадков.
R24 - Количество осадков - Количество выпавших осадков за 24 часа, мм.
S - Снежный покров - Высота снежного покрова, см. При наведении курсора мыши на число - состояние снежного покрова и степень покрытия местности в баллах.